EW6171 Weather Reports


time (UTC)temp
C
wind
direction
speed
KPH
gust
KPH
rain 1hr
cm
rain 24hr
cm
rain mn
cm
humidity
%
barometer
mb
20260509072952 -17 29 0.0 0.0 0.00 0.00 0.00 1006.8
20260509072211 -17 29 0.0 0.0 0.00 0.00 0.00 1007.0
20260509071701 -17 29 0.0 0.0 0.00 0.00 0.00 1007.0
20260509071150 -17 29 0.0 0.0 0.00 0.00 0.00 1007.0
20260509070641 -17 29 0.0 0.0 0.00 0.00 0.00 1007.0
20260509070131 -17 29 0.0 0.0 0.00 0.00 0.00 1006.7
20260509065621 -17 29 0.0 0.0 0.00 0.00 0.00 1006.9
20260509065342 -17 102 0.0 0.0 0.00 0.00 0.00 1006.9
20260509064601 -17 102 0.0 0.0 0.00 0.00 0.00 1006.9
20260509064051 -17 102 0.0 0.0 0.00 0.00 0.00 1006.9
20260509063812 -17 102 0.0 0.0 0.00 0.00 0.00 1006.9
20260509063030 -17 102 0.0 0.0 0.00 0.00 0.00 1006.7
20260509062523 -17 124 0.0 1.6 0.00 0.00 0.00 1006.7
20260509062016 -17 144 0.0 1.6 0.00 0.00 0.00 1006.8
20260509061509 -17 123 0.0 6.4 0.00 0.00 0.00 1006.9
20260509061003 -17 122 1.6 6.4 0.00 0.00 0.00 1006.8
20260509060455 -17 120 3.2 6.4 0.00 0.00 0.00 1006.6
20260509055948 -17 131 4.8 9.7 0.00 0.00 0.00 1006.7
20260509055441 -17 122 4.8 11.3 0.00 0.00 0.00 1006.7
20260509055205 -17 124 4.8 11.3 0.00 0.00 0.00 1006.8
20260509054427 -17 127 4.8 11.3 0.00 0.00 0.00 1006.9
20260509053921 -17 122 6.4 11.3 0.00 0.00 0.00 1007.0
20260509053420 -17 106 4.8 11.3 0.00 0.00 0.00 1007.2
20260509052913 -17 115 4.8 9.7 0.00 0.00 0.00 1007.4
20260509052407 -17 122 4.8 9.7 0.00 0.00 0.00 1007.5
20260509051902 -17 115 4.8 9.7 0.00 0.00 0.00 1007.5
20260509051359 -17 104 4.8 9.7 0.00 0.00 0.00 1007.5
20260509050854 -17 92 4.8 11.3 0.00 0.00 0.00 1007.5
20260509050349 -17 97 3.2 11.3 0.00 0.00 0.00 1007.5
20260509045843 -17 100 4.8 9.7 0.00 0.00 0.00 1007.5
20260509045334 -17 91 4.8 11.3 0.00 0.00 0.00 1007.5
20260509044832 -17 108 4.8 11.3 0.00 0.00 0.00 1007.5
20260509044324 -17 96 4.8 11.3 0.00 0.00 0.00 1007.2
20260509044050 -17 107 4.8 8.0 0.00 0.00 0.00 1007.2
20260509043320 -17 73 4.8 11.3 0.00 0.00 0.00 1007.0
20260509043044 -17 75 6.4 12.9 0.00 0.00 0.00 1006.9
20260509042311 -17 94 8.0 12.9 0.00 0.00 0.00 1006.9
20260509041802 -17 86 6.4 12.9 0.00 0.00 0.00 1006.9
20260509041300 -17 96 4.8 12.9 0.00 0.00 0.00 1007.1
20260509040758 -17 10 6.4 11.3 0.00 0.00 0.00 1007.2
20260509040252 -17 10 6.4 12.9 0.00 0.00 0.00 1007.1
20260509035741 -17 79 6.4 12.9 0.00 0.00 0.00 1007.1
20260509035236 -17 95 6.4 12.9 0.00 0.00 0.00 1007.0
20260509034734 -17 104 6.4 12.9 0.00 0.00 0.00 1007.2
20260509034229 -17 87 4.8 9.7 0.00 0.00 0.00 1007.0
20260509033723 -17 94 4.8 12.9 0.00 0.00 0.00 1007.0
20260509033218 -17 69 6.4 12.9 0.00 0.00 0.00 1006.9
20260509032712 -17 73 6.4 12.9 0.00 0.00 0.00 1006.9
20260509032155 -17 86 4.8 12.9 0.00 0.00 0.00 1006.8
20260509031921 -17 10 4.8 9.7 0.00 0.00 0.00 1006.7
20260509031143 -17 77 4.8 12.9 0.00 0.00 0.00 1006.7
20260509030637 -17 76 6.4 12.9 0.00 0.00 0.00 1006.4
20260509030139 -17 84 6.4 12.9 0.00 0.00 0.00 1006.1
20260509025626 -17 80 6.4 12.9 0.00 0.00 0.00 1006.2
20260509025119 -17 81 8.0 12.9 0.00 0.00 0.00 1006.1
20260509024831 -17 89 6.4 11.3 0.00 0.00 0.00 1006.2
20260509024050 -17 10 6.4 11.3 0.00 0.00 0.00 1006.1
20260509023540 -17 93 6.4 12.9 0.00 0.00 0.00 1006.0
20260509023031 -17 72 6.4 12.9 0.00 0.00 0.00 1005.8
20260509022520 -17 81 4.8 12.9 0.00 0.00 0.00 1005.9
20260509022011 -17 75 3.2 9.7 0.00 0.00 0.00 1005.8
20260509021500 -17 10 3.2 6.4 0.00 0.00 0.00 1005.8
20260509020950 -17 79 1.6 6.4 0.00 0.00 0.00 1005.9
20260509020447 -17 86 1.6 6.4 0.00 0.00 0.00 1005.9
20260509020220 -17 79 1.6 6.4 0.00 0.00 0.00 1005.7
20260509015448 -17 50 3.2 8.0 0.00 0.00 0.00 1006.1
20260509014945 -17 66 4.8 8.0 0.00 0.00 0.00 1005.7
20260509014446 -17 82 3.2 6.4 0.00 0.00 0.00 1005.5
20260509013936 -17 67 3.2 12.9 0.00 0.00 0.00 1005.6
20260509013427 -17 73 4.8 12.9 0.00 0.00 0.00 1005.6
20260509012917 -17 73 8.0 16.1 0.00 0.00 0.00 1005.3
20260509012407 -17 90 8.0 16.1 0.00 0.00 0.00 1005.3
20260509011856 -17 95 4.8 12.9 0.00 0.00 0.00 1005.3
20260509011346 -17 78 4.8 9.7 0.00 0.00 0.00 1005.4
20260509011116 -17 50 4.8 9.7 0.00 0.00 0.00 1005.6
20260509010334 -17 85 6.4 12.9 0.00 0.00 0.00 1005.3
20260509005825 -17 70 8.0 14.5 0.00 0.00 0.00 1005.2
20260509005315 -17 79 8.0 16.1 0.00 0.00 0.00 1005.2
20260509005027 -17 80 8.0 12.9 0.00 0.00 0.00 1005.0
20260509004250 -17 10 8.0 14.5 0.00 0.00 0.00 1005.4
20260509003740 -17 67 6.4 14.5 0.00 0.00 0.00 1005.4
20260509003230 -17 73 6.4 12.9 0.00 0.00 0.00 1005.5
20260509002720 -17 50 11.3 17.7 0.00 0.00 0.00 1005.2
20260509002211 -17 93 9.7 17.7 0.00 0.00 0.00 1004.7
20260509001700 -17 75 8.0 16.1 0.00 0.00 0.00 1005.1
20260509001201 -17 92 8.0 16.1 0.00 0.00 0.00 1004.9
20260509000651 -17 77 8.0 12.9 0.00 0.00 0.00 1005.3
20260509000149 -17 70 8.0 16.1 0.00 0.00 0.00 1005.2
20260508235638 -17 75 6.4 14.5 0.00 0.00 0.00 1005.2
20260508235359 -17 71 6.4 12.9 0.00 0.00 0.00 1005.5
20260508234849 -17 71 4.8 12.9 0.00 0.00 0.00 1005.5
20260508234108 -17 70 6.4 14.5 0.00 0.00 0.00 1005.8
20260508233559 -17 10 8.0 14.5 0.00 0.00 0.00 1005.8
20260508233048 -17 10 8.0 12.9 0.00 0.00 0.00 1005.3
20260508232539 -17 61 8.0 12.9 0.00 0.00 0.00 1005.2
20260508232028 -17 75 9.7 16.1 0.00 0.00 0.00 1004.9
20260508231009 -17 84 11.3 17.7 0.00 0.00 0.00 1004.7
20260508230731 -17 90 9.7 16.1 0.00 0.00 0.00 1004.9
20260508225948 -17 70 8.0 14.5 0.00 0.00 0.00 1005.2
20260508225439 -17 73 8.0 14.5 0.00 0.00 0.00 1005.2
20260508224929 -17 10 8.0 14.5 0.00 0.00 0.00 1005.3
20260508224649 -17 66 9.7 14.5 0.00 0.00 0.00 1005.3
20260508223909 -17 59 8.0 14.5 0.00 0.00 0.00 1005.4
20260508223359 -17 65 6.4 12.9 0.00 0.00 0.00 1005.4
20260508222849 -17 10 6.4 12.9 0.00 0.00 0.00 1005.5
20260508222339 -17 67 6.4 12.9 0.00 0.00 0.00 1005.5
20260508221828 -17 74 4.8 12.9 0.00 0.00 0.00 1005.8
20260508221549 -17 21 6.4 12.9 0.00 0.00 0.00 1005.8
20260508220800 -17 77 8.0 16.1 0.00 0.00 0.00 1005.7
20260508220242 -17 100 11.3 16.1 0.00 0.00 0.00 1005.4
20260508215222 -17 74 8.0 12.9 0.00 0.00 0.00 1005.7
20260508214713 -17 75 6.4 12.9 0.00 0.00 0.00 1005.7
20260508214204 -17 93 4.8 12.9 0.00 0.00 0.00 1005.7
20260508213653 -17 55 6.4 12.9 0.00 0.00 0.00 1006.1
20260508213143 -17 10 8.0 14.5 0.00 0.00 0.00 1006.0
20260508212633 -17 73 8.0 14.5 0.00 0.00 0.00 1005.9
20260508212123 -17 58 6.4 12.9 0.00 0.00 0.00 1006.0
20260508211612 -17 58 8.0 14.5 0.00 0.00 0.00 1006.2
20260508211102 -17 68 8.0 14.5 0.00 0.00 0.00 1006.3
20260508210552 -17 59 8.0 11.3 0.00 0.00 0.00 1006.4
20260508210042 -17 60 8.0 16.1 0.00 0.00 0.00 1006.4
20260508205532 -17 72 9.7 16.1 0.00 0.00 0.00 1006.5
20260508205022 -17 10 9.7 16.1 0.00 0.00 0.00 1006.4
20260508204512 -17 54 9.7 16.1 0.00 0.00 0.00 1006.5
20260508204004 -17 62 8.0 16.1 0.00 0.00 0.00 1006.6
20260508203450 -17 63 8.0 16.1 0.00 0.00 0.00 1006.7
20260508203212 -17 61 8.0 16.1 0.00 0.00 0.00 1006.9
20260508202430 -17 10 8.0 14.5 0.00 0.00 0.00 1006.9
20260508201916 -17 42 9.7 16.1 0.00 0.00 0.00 1006.9
20260508201408 -17 53 11.3 16.1 0.00 0.00 0.00 1006.9
20260508200900 -17 54 9.7 16.1 0.00 0.00 0.00 1006.8
20260508200354 -17 65 11.3 17.7 0.00 0.00 0.00 1006.9
20260508200115 -17 52 9.7 17.7 0.00 0.00 0.00 1007.0
20260508195335 -17 52 11.3 17.7 0.00 0.00 0.00 1007.0
20260508194829 -17 10 12.9 17.7 0.00 0.00 0.00 1007.0
20260508194554 -17 50 11.3 17.7 0.00 0.00 0.00 1007.2
20260508193808 -17 53 9.7 17.7 0.00 0.00 0.00 1007.1
20260508193300 -17 59 9.7 14.5 0.00 0.00 0.00 1007.2
20260508192752 -17 41 9.7 14.5 0.00 0.00 0.00 1007.3
20260508192249 -17 10 11.3 17.7 0.00 0.00 0.00 1006.4
20260508192013 -17 63 9.7 17.7 0.00 0.00 0.00 1007.2
20260508191232 -17 58 9.7 16.1 0.00 0.00 0.00 1007.4
20260508190714 -17 57 9.7 16.1 0.00 0.00 0.00 1007.5
20260508190209 -17 47 8.0 14.5 0.00 0.00 0.00 1007.6
20260508185206 -17 10 8.0 14.5 0.00 0.00 0.00 1007.6
20260508184701 -17 56 8.0 14.5 0.00 0.00 0.00 1007.5
20260508184152 -17 10 6.4 12.9 0.00 0.00 0.00 1007.5
20260508183648 -17 10 4.8 12.9 0.00 0.00 0.00 1007.5
20260508183140 -17 10 4.8 9.7 0.00 0.00 0.00 1007.6
20260508182632 -17 10 6.4 14.5 0.00 0.00 0.00 1007.6
20260508182125 -17 20 6.4 14.5 0.00 0.00 0.00 1007.7
20260508181621 -17 15 6.4 12.9 0.00 0.00 0.00 1007.9
20260508181115 -17 355 8.0 17.7 0.00 0.00 0.00 1008.0
20260508180842 -17 28 8.0 17.7 0.00 0.00 0.00 1007.9
20260508180109 -17 35 6.4 12.9 0.00 0.00 0.00 1007.9
20260508175608 -17 27 6.4 17.7 0.00 0.00 0.00 1007.9
20260508175105 -17 34 8.0 17.7 0.00 0.00 0.00 1008.1
20260508174834 -17 15 9.7 17.7 0.00 0.00 0.00 1008.2
20260508173547 -17 10 11.3 17.7 0.00 0.00 0.00 1008.1
20260508172535 -17 10 4.8 16.1 0.00 0.00 0.00 1008.0
20260508172031 -17 53 4.8 9.7 0.00 0.00 0.00 1008.0
20260508171520 -17 58 3.2 9.7 0.00 0.00 0.00 1008.1
20260508171016 -17 35 3.2 8.0 0.00 0.00 0.00 1008.1
20260508170736 -17 10 4.8 11.3 0.00 0.00 0.00 1008.1
20260508170002 -17 46 3.2 11.3 0.00 0.00 0.00 1008.2
20260508165458 -17 83 4.8 12.9 0.00 0.00 0.00 1008.2
20260508165219 -17 67 6.4 14.5 0.00 0.00 0.00 1008.1
20260508164442 -17 95 4.8 14.5 0.00 0.00 0.00 1008.2
20260508163933 -17 82 4.8 12.9 0.00 0.00 0.00 1008.3
20260508163422 -17 94 4.8 9.7 0.00 0.00 0.00 1008.5
20260508162911 -17 80 3.2 9.7 0.00 0.00 0.00 1008.5
20260508161852 -17 108 3.2 11.3 0.00 0.00 0.00 1008.4
20260508161341 -17 80 1.6 11.3 0.00 0.00 0.00 1008.5
20260508160837 -17 123 1.6 6.4 0.00 0.00 0.00 1008.6
20260508160327 -17 111 1.6 6.4 0.00 0.00 0.00 1008.6
20260508155818 -17 82 3.2 11.3 0.00 0.00 0.00 1008.6
20260508155308 -17 96 4.8 11.3 0.00 0.00 0.00 1008.5
20260508154757 -17 98 4.8 6.4 0.00 0.00 0.00 1008.7
20260508154247 -17 114 3.2 6.4 0.00 0.00 0.00 1008.8
20260508154007 -17 101 1.6 6.4 0.00 0.00 0.00 1009.0
20260508153227 -17 84 1.6 8.0 0.00 0.00 0.00 1009.0
20260508152717 -17 92 3.2 8.0 0.00 0.00 0.00 1009.0
20260508152438 -17 104 3.2 11.3 0.00 0.00 0.00 1009.1
20260508151929 -17 88 3.2 11.3 0.00 0.00 0.00 1009.1
20260508151147 -17 95 3.2 6.4 0.00 0.00 0.00 1009.1
20260508150637 -17 108 1.6 6.4 0.00 0.00 0.00 1009.3
20260508150128 -17 115 3.2 11.3 0.00 0.00 0.00 1009.3
20260508145617 -17 138 4.8 11.3 0.00 0.00 0.00 1009.4
20260508145107 -17 82 4.8 12.9 0.00 0.00 0.00 1009.4
20260508144557 -17 102 6.4 12.9 0.00 0.00 0.00 1009.3
20260508144048 -17 108 6.4 12.9 0.00 0.00 0.00 1009.2
20260508143809 -17 67 3.2 12.9 0.00 0.00 0.00 1009.3
20260508143027 -17 84 3.2 6.4 0.00 0.00 0.00 1009.5
20260508142517 -17 97 1.6 6.4 0.00 0.00 0.00 1009.7
20260508142008 -17 77 3.2 6.4 0.00 0.00 0.00 1009.8
20260508141458 -17 68 1.6 6.4 0.00 0.00 0.00 1009.7
20260508140947 -17 35 3.2 9.7 0.00 0.00 0.00 1009.6
20260508140437 -17 52 6.4 12.9 0.00 0.00 0.00 1009.4
20260508135928 -17 26 6.4 14.5 0.00 0.00 0.00 1009.3
20260508135650 -17 25 4.8 11.3 0.00 0.00 0.00 1009.4
20260508134908 -17 28 3.2 11.3 0.00 0.00 0.00 1009.5
20260508134357 -17 10 4.8 8.0 0.00 0.00 0.00 1009.7
20260508133847 -17 61 6.4 14.5 0.00 0.00 0.00 1009.5
20260508133337 -17 58 6.4 14.5 0.00 0.00 0.00 1009.5
20260508132827 -17 54 6.4 11.3 0.00 0.00 0.00 1009.6
20260508132548 -17 10 4.8 9.7 0.00 0.00 0.00 1009.8
20260508131807 -17 67 6.4 14.5 0.00 0.00 0.00 1010.0
20260508131257 -17 50 8.0 17.7 0.00 0.00 0.00 1010.1
20260508130748 -17 21 6.4 17.7 0.00 0.00 0.00 1010.1
20260508130510 -17 10 8.0 17.7 0.00 0.00 0.00 1010.4
20260508125952 -17 10 9.7 17.7 0.00 0.00 0.00 1010.5
20260508125441 -17 10 12.9 19.3 0.00 0.00 0.00 1010.5
20260508124658 -17 10 14.5 19.3 0.00 0.00 0.00 1010.3
20260508124145 -17 348 14.5 19.3 0.00 0.00 0.00 1010.3
20260508123633 -17 10 12.9 19.3 0.00 0.00 0.00 1010.1
20260508123354 -17 10 11.3 17.7 0.00 0.00 0.00 1010.0
20260508122613 -17 10 11.3 17.7 0.00 0.00 0.00 1009.8
20260508122332 -17 10 14.5 19.3 0.00 0.00 0.00 1009.7
20260508121551 -17 10 14.5 19.3 0.00 0.00 0.00 1009.7
20260508121312 -17 10 16.1 22.5 0.00 0.00 0.00 1009.7
20260508120531 -17 10 14.5 22.5 0.00 0.00 0.00 1009.8
20260508120022 -17 326 12.9 19.3 0.00 0.00 0.00 1009.8
20260508115511 -17 10 11.3 16.1 0.00 0.00 0.00 1009.9
20260508115001 -17 10 11.3 16.1 0.00 0.00 0.00 1009.9
20260508114452 -17 327 11.3 16.1 0.00 0.00 0.00 1009.9
20260508113941 -17 328 11.3 14.5 0.00 0.00 0.00 1009.8
20260508113432 -17 10 11.3 14.5 0.00 0.00 0.00 1009.8
20260508112920 -17 320 8.0 12.9 0.00 0.00 0.00 1009.7
20260508112407 -17 324 4.8 8.0 0.00 0.00 0.00 1009.4
20260508111857 -17 10 1.6 6.4 0.00 0.00 0.00 1009.0
20260508111347 -17 352 1.6 3.2 0.00 0.00 0.00 1008.9
20260508110838 -17 19 1.6 6.4 0.00 0.00 0.00 1008.7
20260508110335 -17 27 3.2 6.4 0.00 0.00 0.00 1008.6
20260508105825 -17 44 3.2 8.0 0.00 0.00 0.00 1008.6
20260508105316 -17 61 4.8 8.0 0.00 0.00 0.00 1008.6
20260508104805 -17 50 4.8 6.4 0.00 0.00 0.00 1008.8
20260508104246 -17 62 4.8 6.4 0.00 0.00 0.00 1008.9
20260508103736 -17 58 3.2 8.0 0.00 0.00 0.00 1008.9
20260508103225 -17 54 3.2 8.0 0.00 0.00 0.00 1009.0
20260508102715 -17 45 3.2 9.7 0.00 0.00 0.00 1009.2
20260508102437 -17 19 3.2 9.7 0.00 0.00 0.00 1009.2
20260508101656 -17 5 1.6 6.4 0.00 0.00 0.00 1009.3
20260508101145 -17 52 1.6 6.4 0.00 0.00 0.00 1009.3
20260508100635 -17 352 3.2 6.4 0.00 0.00 0.00 1009.6
20260508100125 -17 10 1.6 6.4 0.00 0.00 0.00 1009.8
20260508095618 -17 311 0.0 4.8 0.00 0.00 0.00 1009.9
20260508095107 -17 323 1.6 4.8 0.00 0.00 0.00 1010.0
20260508094600 -17 316 1.6 4.8 0.00 0.00 0.00 1010.1
20260508094049 -17 316 0.0 3.2 0.00 0.00 0.00 1009.9
20260508093540 -17 307 0.0 1.6 0.00 0.00 0.00 1009.8
20260508093300 -17 10 0.0 0.0 0.00 0.00 0.00 1009.4
20260508092521 -17 42 0.0 0.0 0.00 0.00 0.00 1009.1
20260508092011 -17 42 0.0 0.0 0.00 0.00 0.00 1008.9
20260508091505 -17 42 0.0 0.0 0.00 0.00 0.00 1008.9
20260508091228 -17 42 0.0 0.0 0.00 0.00 0.00 1009.0
20260508090457 -17 24 0.0 0.0 0.00 0.00 0.00 1009.3
20260508085953 -17 24 0.0 0.0 0.00 0.00 0.00 1009.5
20260508085441 -17 24 0.0 0.0 0.00 0.00 0.00 1009.5
20260508084935 -17 24 0.0 1.6 0.00 0.00 0.00 1009.5
20260508084430 -17 24 0.0 1.6 0.00 0.00 0.00 1009.4
20260508084159 -17 15 0.0 1.6 0.00 0.00 0.00 1009.5
20260508083653 -17 5 0.0 1.6 0.00 0.00 0.00 1009.8
20260508082919 -17 5 0.0 1.6 0.00 0.00 0.00 1009.8
20260508082413 -17 15 0.0 3.2 0.00 0.00 0.00 1009.8
20260508081909 -17 346 1.6 6.4 0.00 0.00 0.00 1009.9
20260508081402 -17 348 1.6 6.4 0.00 0.00 0.00 1009.6
20260508080900 -17 338 3.2 6.4 0.00 0.00 0.00 1009.6
20260508080354 -17 358 3.2 8.0 0.00 0.00 0.00 1009.5
20260508075851 -17 10 3.2 8.0 0.00 0.00 0.00 1009.5
20260508075350 -17 15 4.8 9.7 0.00 0.00 0.00 1009.5
20260508074850 -17 10 4.8 9.7 0.00 0.00 0.00 1009.6
20260508074334 -17 350 4.8 9.7 0.00 0.00 0.00 1009.6
20260508073825 -17 352 4.8 8.0 0.00 0.00 0.00 1009.7
20260508073555 -17 351 4.8 9.7 0.00 0.00 0.00 1009.9